08/02/2010

La poule de luxe, le Conseiller Fédéral, le reporter sportif et l’Eglise!

Revue de paresse, un peu d’humour autour des nouvelles qui invitent à la réflexion

Sans titre-1.jpgCela fait un moment que je ne me suis pas livré à ce genre d’exercice: une revue de presse maison. Normalement, il faut se réveiller à l’heure où les rotatives prennent congé pour la journée. Moi, ma revue de la presse  suisse  francophone prend son élan à l’heure du digestif. Peut-être pour mieux digérer l’information de la veille.

La conclusion avant le début. La dignité n’a plus de place dans ce bas monde. Le cas de la prostituée qui fait commerce de ses secrets...et le Conseiller Fédéral qui défend bec et ongle le secret qui cache la fraude fiscale. Pour le reste, le retour des Eglises qui vont commencer à faire la manche et le jeune reporter sportif qui rêve de l’impossible. Les journalistes écrivent dans l’urgence et le lecteur déguste dans l’aisance!

Je commence par la page people qui nous apprend que Tiger Woods ne fréquente pas les quartiers chauds de la confédération. Il se fournit en sexe tarifé chez Berlusconi pas directement (attention pas de sous entendu, quoi que ça peut se faire) et paye ses galipettes 15’000 francs par coup sans oublier les frais de déplacement et les cadeaux en tout genre. Elle  au moins (de son vrai nom Loredana Ferriolo) n’a pas le stress des prostituées suisses (enquête dans Le Matin Dimanche d’hier). Retenez ma classe, moi pour la bagatelle je dis “coup” et le journal qui nous livre cette information de haut vol parle de “passe”.22035_1291531781323_1621127854_757419_2876185_n.jpg Il y a même la photo de la diva, une blonde bien montée côté carrosserie (un clin d’oeil au salon de l’auto de Genève qui aura lieu du 4 au 14 mars). Cette dernière pour remercier son golfeur prépare un livre sur lui où elle décrira par le menu la bisexualité présumée d’un champion d’une discipline qui consiste à mettre une petite balle dans un petit trou! Je suis désolé pour ses fans, Tiger n’est pas un véritable tigre. Il paye trop cher une relation qui devrait rester un secret de pl22035_1291531901326_1621127854_757421_4894256_n.jpgumard! Le secret, tient ça ne veut plus rien dire. Je ne sais pas pourquoi notre précieux Hans-Rudolf Merz se débat comme un vieux tigre en collectionnant les baffes afin d’essayer de sauver un semblant de secret bancaire qui s’effrite de jour en jour. Après les Etat-Unis, la France et l’Allemagne la liste des pays qui frappent à nos partes s’allonge elle aussi. Cette grande cachotterie bancaire qui ne fait plus la légende de la Suisse mérite d’être vendue au plus offrant. Au point où nous en sommes je suggère la création d’une société publique qui aura pour rôle de vendre ce qui reste des listings des fraudeurs aux pays concernés. Là au moins c’est de l’argent qui peut faire du bien à notre LPP. Tiens en parlant de la prévoyance  professionnelle vieillesse, survivants et invalidité, les affiches de la votation du 7 mars sont déjà placardées dans nos rues. Prenez le temps de les lire pour vous faire une idée sur le OUI ou le NON.
Pour les autres nouvelles, le sélectionneur de notre équipe nationale de Foot Ottmar Hitzfeld n’a pas peur de l’Angleterre pour les éliminatoires de l’Euro 2012. Il ne le dit pas clairement, mais le journaliste sportif qui a rédigé l’article y croit. L’équipe anglaise, l’une des favorites pour le titre mondial, laissera-t-elle faire la Suisse? Le reporter sportif confond certainement l’équipe senior avec les M16!
Côté religion les églises tiennent actuellement campagne pour partager les legs avec l’Etat, elles draguent les notaires. Trop long comme article, je zappe de toute façon je n’ai pas un centime à léguer ni à une église ni à une mosquée encore moins à une synagogue. Si je gagne au loto, je laisse tout à Brigitte Bardot. Non, surtout pas elle la nouvelle copine de l’homme à la queue de cheval, Oscar Freysinger! Je trouverai au moment venu. Par exemple je dépenserai mon argent en achetant le carnet d’adresses de Tiger Woods! Pour le reste des infos, par paresse je m’abstiens à vous donner la suite.

Votation.jpg

Rubrique Pierre Maudet
9535_1176173217431_1621127854_489806_6205408_n.jpg

Conseiller administratif responsable du Département de l'environnement urbain et de la sécurité entre autre chasseur d'affiches sauvages: en rapport avec cette rubrique, les liens suivants:Affiches sauvages, Genève, n'est pas une poubellePierre Maudet, j'adore!, Maudet et Longchamps ouvrent le bal électorel, Sécu-municipaux-cop!Maudet aux Pâquis!, Maudet promoteur de graffitis et Maudet-Moutinot le combat des titans

22035_1291529341262_1621127854_757379_7589196_n.jpg
22035_1291529421264_1621127854_757380_4889085_n.jpg
22035_1291529461265_1621127854_757381_1701357_n.jpg
Dans les rues de Genève:
22035_1291529541267_1621127854_757382_6609453_n.jpg
22035_1291529581268_1621127854_757383_3860769_n.jpg
22035_1291529701271_1621127854_757385_1329719_n.jpg
22035_1291529781273_1621127854_757386_693757_n.jpg
22035_1291529821274_1621127854_757387_3527374_n.jpg
22035_1291529861275_1621127854_757388_4469336_n.jpg
22035_1291529941277_1621127854_757389_3258810_n.jpg
22035_1291530021279_1621127854_757390_7024338_n.jpg
22035_1291530061280_1621127854_757391_3282233_n.jpg
22035_1291530101281_1621127854_757392_4109991_n.jpg
22035_1291530181283_1621127854_757393_4673960_n.jpg
22035_1291530221284_1621127854_757394_1086073_n.jpg
22035_1291530341287_1621127854_757395_6202154_n.jpg
22035_1291530381288_1621127854_757396_6599947_n.jpg
22035_1291530421289_1621127854_757397_7454900_n.jpg
22035_1291531021304_1621127854_757404_1821727_n.jpg
22035_1291530581293_1621127854_757399_2839167_n.jpg
22035_1291549821774_1621127854_757511_8204316_n.jpg
22035_1291531141307_1621127854_757406_7299513_n.jpg
22035_1291531101306_1621127854_757405_1335030_n.jpg
22035_1291531181308_1621127854_757407_1161630_n.jpg
22035_1291531341312_1621127854_757409_4128912_n.jpg
22035_1291531381313_1621127854_757410_6809597_n.jpg
22035_1291531421314_1621127854_757411_5097112_n.jpg
22035_1291531501316_1621127854_757412_6015309_n.jpg
22035_1291531541317_1621127854_757413_354705_n.jpg
22035_1291531581318_1621127854_757414_2691802_n.jpg
22035_1291531621319_1621127854_757415_4613860_n.jpg
22035_1291531661320_1621127854_757416_7821237_n.jpg
22035_1291531701321_1621127854_757417_7319705_n.jpg
22035_1291531741322_1621127854_757418_3712151_n.jpg

Et demain est un autre jour!
1068008157.jpg
Toutes nos pensées pour ces deux innocentes victimes du terrorisme d'état
1814784972.jpg
Bientôt à la maison????

Les commentaires sont fermés.